Powrót do katalogu

COSMOS 2251 DEB

AktywnyLEO
NORAD 37126·DEBRIS·🇷🇺 Russia

Wystrzelony Jun 16, 1993 z Plesetsk Cosmodrome

Loading…

Następne Przeloty (najbliższe 24 godziny)

TLE

Starzejące sięSource: Space-Track

Epoka: Sep 10, 2026, 03:24 UTC

1 37126U 93036BGY 26253.14208768  .00001183  00000-0  16622-3 0  9997
2 37126  73.9518 182.5465 0120520 355.6493   4.3618 14.73823314120966

Śledź COSMOS 2251 DEB w czasie rzeczywistym z AllMySat

Download on the App Store